NORTHEAST SUFFOLK  -  Freeze Watch Freeze Watch        NORTHWEST SUFFOLK  -  Freeze Watch Freeze Watch        SOUTHEAST SUFFOLK  -  Freeze Watch Freeze Watch        SOUTHWEST SUFFOLK  -  Freeze Watch Freeze Watch      

Active alerts

Northwest Suffolk
  Details for Northwest Suffolk Freeze Watch
Southwest Suffolk
  Details for Southwest Suffolk Freeze Watch
Northeast Suffolk
  Details for Northeast Suffolk Freeze Watch
Southeast Suffolk
  Details for Southeast Suffolk Freeze Watch


WXM80 ListenWXM80 Stop

You find our weather info also at:

UK Metoffice

WeatherCloud

Weather Underground

Northeastern Weather Network

AWEKAS

Citizen Weather Observer Program (CWOP)

HAMweather, WeatherForYou, PWS Weather


Weather Underground History page Text

Daily Summary for January 18, 2017 Units:  Metric    English   Both
« Previous Day
Next Day »
Daily Weekly Monthly Yearly Custom
  High: Low: Average:
Temperature: 4.7 °C 3.6 °C 4.2 °C
Dew Point: 4.3 °C 2.9 °C 3.7 °C
Humidity: 98 % 94 % 96 %
Wind Speed: 17.7 km/h 0 km/h 6.4 km/h
Wind Gust: 25.9 km/h - -
Wind:- - East
Pressure: 1016.5 hPa 1010 hPa -
Precipitation: 0 mm    
Historical Graphs
 
 
Tabular Data for January 18, 2017
Time Temperature Dew Point Pressure Wind Wind Speed Wind Gust Humidity Rainfall Rate (Hourly)
00:04 3.6 °C 3.2 °C 1013.4 hPa ENE 11.3 km/h 19.3 km/h 97 % 0 mm
00:09 3.6 °C 3.2 °C 1013.4 hPa ENE 12.9 km/h 20.4 km/h 97 % 0 mm
00:14 3.6 °C 3.2 °C 1013.4 hPa ENE 12.9 km/h 19.3 km/h 97 % 0 mm
00:19 3.7 °C 3.2 °C 1013.4 hPa NE 10 km/h 16.7 km/h 97 % 0 mm
00:24 3.7 °C 3.2 °C 1013.4 hPa ENE 9.7 km/h 20.9 km/h 97 % 0 mm
00:29 3.7 °C 3.2 °C 1013.4 hPa ENE 9.7 km/h 17.7 km/h 97 % 0 mm
00:34 3.7 °C 3.2 °C 1013.1 hPa NE 14.5 km/h 18.5 km/h 97 % 0.25 mm
00:39 3.7 °C 3.3 °C 1013.1 hPa ENE 10.5 km/h 20.4 km/h 97 % 0.25 mm
00:44 3.7 °C 3.3 °C 1012.8 hPa ENE 12.9 km/h 20.9 km/h 97 % 0 mm
00:49 3.7 °C 3.3 °C 1012.8 hPa ENE 16.1 km/h 22.5 km/h 97 % 0.25 mm
00:54 3.8 °C 3.3 °C 1012.8 hPa ENE 12.9 km/h 19.3 km/h 97 % 0 mm
00:59 3.7 °C 3.3 °C 1012.4 hPa ENE 15.8 km/h 22.2 km/h 97 % 0.76 mm
01:04 3.8 °C 3.3 °C 1012.4 hPa ENE 14.5 km/h 25.7 km/h 97 % 0 mm
01:09 3.8 °C 3.3 °C 1012.4 hPa ENE 14.5 km/h 24.1 km/h 97 % 0 mm
01:14 3.8 °C 3.4 °C 1012.4 hPa ENE 11.7 km/h 22.2 km/h 97 % 0.76 mm
01:19 3.8 °C 3.4 °C 1012.1 hPa ENE 12.7 km/h 17.7 km/h 97 % 0.76 mm
01:24 3.8 °C 3.4 °C 1012.1 hPa ENE 12.9 km/h 20.9 km/h 97 % 0 mm
01:29 3.9 °C 3.4 °C 1012.1 hPa ENE 14.5 km/h 24.1 km/h 97 % 0 mm
01:34 3.9 °C 3.5 °C 1012.1 hPa ENE 14.5 km/h 22.5 km/h 97 % 0 mm
01:39 3.9 °C 3.5 °C 1012.1 hPa ENE 9.7 km/h 16.1 km/h 97 % 0 mm
01:44 4 °C 3.7 °C 1012.1 hPa ENE 14.5 km/h 22.5 km/h 98 % 0 mm
01:49 4.1 °C 3.8 °C 1012.4 hPa ENE 14.5 km/h 24.1 km/h 98 % 0 mm
01:54 4.2 °C 3.7 °C 1012.4 hPa ENE 14.5 km/h 20.9 km/h 97 % 0 mm
01:59 4.2 °C 3.7 °C 1012.1 hPa ENE 12.6 km/h 20.4 km/h 97 % 0 mm
02:04 4.2 °C 3.7 °C 1012.1 hPa ENE 14 km/h 20.9 km/h 97 % 0 mm
02:09 4.2 °C 3.7 °C 1012.1 hPa ENE 15 km/h 22.2 km/h 97 % 0 mm
02:14 4.2 °C 3.7 °C 1012.1 hPa NE 10.8 km/h 14.8 km/h 97 % 0 mm
02:19 4.1 °C 3.8 °C 1011.7 hPa ENE 12.7 km/h 18.5 km/h 98 % 0 mm
02:24 4.1 °C 3.8 °C 1011.4 hPa ENE 10.3 km/h 13 km/h 98 % 0 mm
02:29 4.1 °C 3.8 °C 1011.1 hPa ESE 12.6 km/h 18.5 km/h 98 % 0 mm
02:34 4.1 °C 3.8 °C 1011.1 hPa East 9.8 km/h 14.8 km/h 98 % 0 mm
02:39 4.1 °C 3.8 °C 1011.1 hPa East 12.1 km/h 16.7 km/h 98 % 0 mm
02:44 4.2 °C 3.7 °C 1011.7 hPa East 9.7 km/h 14.8 km/h 97 % 0 mm
02:49 4.2 °C 3.7 °C 1011.7 hPa ENE 10.1 km/h 13 km/h 97 % 0 mm
02:55 4.2 °C 3.9 °C 1011.7 hPa ENE 10.1 km/h 14.8 km/h 98 % 0 mm
03:00 4.3 °C 4 °C 1011.4 hPa ENE 11.7 km/h 14.8 km/h 98 % 0 mm
03:05 4.3 °C 4 °C 1011.4 hPa ENE 10.5 km/h 14.8 km/h 98 % 0 mm
03:10 4.3 °C 4.1 °C 1011.4 hPa NE 12.9 km/h 18.5 km/h 98 % 0 mm
03:15 4.3 °C 4.1 °C 1011.1 hPa ENE 9.3 km/h 13 km/h 98 % 0.25 mm
03:20 4.3 °C 4.1 °C 1011.1 hPa ENE 8.4 km/h 11.1 km/h 98 % 0.25 mm
03:25 4.3 °C 4.1 °C 1011.1 hPa ENE 9.3 km/h 13 km/h 98 % 0.51 mm
03:30 4.3 °C 4.1 °C 1010.7 hPa East 14 km/h 20.4 km/h 98 % 0.51 mm
03:35 4.3 °C 4 °C 1011.1 hPa NE 8.7 km/h 14.8 km/h 98 % 0.51 mm
03:40 4.2 °C 3.9 °C 1011.1 hPa NE 13.5 km/h 18.5 km/h 98 % 0.51 mm
03:45 4.1 °C 3.8 °C 1010.7 hPa NE 11.1 km/h 18.5 km/h 98 % 0.51 mm
03:50 4.1 °C 3.8 °C 1011.1 hPa NE 11.7 km/h 18.5 km/h 98 % 0.51 mm
03:55 4.1 °C 3.8 °C 1011.1 hPa NE 6.4 km/h 14.8 km/h 98 % 0.51 mm
04:00 4.1 °C 3.6 °C 1011.4 hPa ENE 10.8 km/h 18.5 km/h 97 % 0.51 mm
04:05 4.1 °C 3.6 °C 1011.4 hPa NNE 8 km/h 13 km/h 97 % 0.51 mm
04:10 4.1 °C 3.8 °C 1011.4 hPa NNE 9 km/h 13 km/h 98 % 0.51 mm
04:15 4.1 °C 3.6 °C 1011.1 hPa NE 15.9 km/h 19.3 km/h 97 % 0.25 mm
04:20 4.1 °C 3.8 °C 1011.4 hPa ENE 11.6 km/h 14.8 km/h 98 % 0.25 mm
04:25 4.1 °C 3.8 °C 1011.4 hPa ENE 11.1 km/h 16.7 km/h 98 % 0 mm
04:31 4.1 °C 3.8 °C 1011.7 hPa NE 7.2 km/h 13 km/h 98 % 0.25 mm
04:36 4.1 °C 3.8 °C 1011.7 hPa ENE 7.6 km/h 16.7 km/h 98 % 0.51 mm
04:41 4.1 °C 3.8 °C 1011.4 hPa NE 14.5 km/h 18.5 km/h 98 % 0.51 mm
04:46 4.1 °C 3.8 °C 1011.4 hPa ENE 10.3 km/h 14.5 km/h 98 % 0.76 mm
04:52 4.1 °C 3.8 °C 1011.4 hPa ENE 8.7 km/h 14.8 km/h 98 % 0.76 mm
04:57 4.1 °C 3.8 °C 1011.1 hPa ENE 9.8 km/h 16.7 km/h 98 % 0.76 mm
05:02 4.2 °C 3.9 °C 1010.7 hPa East 9.2 km/h 14.8 km/h 98 % 0.76 mm
05:07 4.2 °C 3.9 °C 1010.7 hPa ENE 12.4 km/h 13 km/h 98 % 1.02 mm
05:12 4.2 °C 3.9 °C 1010.4 hPa East 11.7 km/h 14.8 km/h 98 % 1.02 mm
05:17 4.2 °C 3.9 °C 1010 hPa ENE 12.2 km/h 16.7 km/h 98 % 1.02 mm
05:22 4.3 °C 4 °C 1010 hPa ENE 14.2 km/h 17.7 km/h 98 % 1.02 mm
05:27 4.3 °C 4.1 °C 1010.4 hPa NE 15.6 km/h 22.2 km/h 98 % 1.02 mm
05:32 4.4 °C 4.1 °C 1010.4 hPa East 12.9 km/h 18.5 km/h 98 % 0.76 mm
05:37 4.4 °C 4.2 °C 1010.4 hPa ENE 14.2 km/h 18.5 km/h 98 % 0.51 mm
05:42 4.5 °C 4.2 °C 1010.4 hPa ENE 17.7 km/h 24.1 km/h 98 % 0.51 mm
05:47 4.5 °C 4.2 °C 1010.7 hPa ENE 17.5 km/h 24.1 km/h 98 % 0.25 mm
05:52 4.5 °C 4.2 °C 1010.7 hPa ENE 15 km/h 25.9 km/h 98 % 0.25 mm
05:58 4.5 °C 4.2 °C 1011.1 hPa ENE 14 km/h 18.5 km/h 98 % 0.25 mm
06:03 4.5 °C 4.2 °C 1011.1 hPa NE 15.8 km/h 18.5 km/h 98 % 0.25 mm
06:08 4.6 °C 4.3 °C 1011.4 hPa NNE 16.4 km/h 25.7 km/h 98 % 0 mm
06:13 4.6 °C 4.3 °C 1011.7 hPa NE 11.3 km/h 18.5 km/h 98 % 0 mm
06:18 4.5 °C 4.2 °C 1011.7 hPa ENE 12.4 km/h 14.8 km/h 98 % 0 mm
06:23 4.4 °C 4.2 °C 1011.7 hPa ENE 16.6 km/h 24.1 km/h 98 % 0 mm
06:28 4.4 °C 4.2 °C 1011.7 hPa East 13.2 km/h 18.5 km/h 98 % 0 mm
06:33 4.4 °C 4.2 °C 1011.4 hPa ENE 16.6 km/h 22.2 km/h 98 % 0 mm
06:38 4.4 °C 4.1 °C 1011.4 hPa ENE 15 km/h 24.1 km/h 98 % 0 mm
06:43 4.3 °C 4.1 °C 1011.4 hPa East 11.1 km/h 16.7 km/h 98 % 0 mm
06:48 4.3 °C 4.1 °C 1011.4 hPa ENE 16.6 km/h 25.9 km/h 98 % 0 mm
06:53 4.3 °C 4.1 °C 1011.4 hPa ENE 13.5 km/h 18.5 km/h 98 % 0 mm
06:58 4.3 °C 3.8 °C 1011.4 hPa NE 12.1 km/h 18.5 km/h 97 % 0 mm
07:03 4.3 °C 3.8 °C 1011.4 hPa ENE 16.3 km/h 18.5 km/h 97 % 0 mm
07:08 4.3 °C 3.8 °C 1011.4 hPa ENE 15.3 km/h 18.5 km/h 97 % 0 mm
07:14 4.2 °C 3.8 °C 1011.4 hPa ENE 9.8 km/h 14.8 km/h 97 % 0 mm
07:19 4.2 °C 3.8 °C 1011.4 hPa NE 13.2 km/h 18.5 km/h 97 % 0 mm
07:24 4.2 °C 3.8 °C 1011.7 hPa ENE 9 km/h 12.9 km/h 97 % 0 mm
07:29 4.2 °C 3.8 °C 1011.7 hPa NE 8 km/h 14.5 km/h 97 % 0 mm
07:34 4.2 °C 3.7 °C 1012.1 hPa NE 4.8 km/h 11.3 km/h 97 % 0 mm
07:39 4.2 °C 3.7 °C 1012.1 hPa North 5.3 km/h 14.8 km/h 97 % 0 mm
07:44 4.2 °C 3.7 °C 1012.1 hPa NE 4.8 km/h 16.1 km/h 97 % 0 mm
07:49 4.2 °C 3.7 °C 1012.1 hPa NNE 8 km/h 11.3 km/h 97 % 0 mm
07:54 4.2 °C 3.7 °C 1012.1 hPa NE 4.8 km/h 8 km/h 97 % 0 mm
07:59 4.2 °C 3.7 °C 1012.1 hPa NNW 4.7 km/h 7.4 km/h 97 % 0 mm
08:04 4.1 °C 3.7 °C 1012.4 hPa NNE 4.8 km/h 14.5 km/h 97 % 0 mm
08:09 4.1 °C 3.7 °C 1012.4 hPa NNE 8 km/h 9.7 km/h 97 % 0 mm
08:14 4.1 °C 3.7 °C 1012.4 hPa NNE 4.8 km/h 12.9 km/h 97 % 0 mm
08:19 4.1 °C 3.7 °C 1012.1 hPa NNE 8 km/h 11.3 km/h 97 % 0 mm
08:24 4.1 °C 3.6 °C 1012.4 hPa NNE 6.1 km/h 8 km/h 97 % 0 mm
08:29 4.1 °C 3.7 °C 1012.4 hPa NE 8 km/h 14.5 km/h 97 % 0 mm
08:34 4.1 °C 3.7 °C 1012.4 hPa NNE 8 km/h 11.3 km/h 97 % 0 mm
08:39 4.1 °C 3.7 °C 1012.4 hPa NNE 3.2 km/h 11.3 km/h 97 % 0 mm
08:44 4.1 °C 3.7 °C 1012.4 hPa NNE 4.8 km/h 12.9 km/h 97 % 0 mm
08:49 4.1 °C 3.7 °C 1012.4 hPa NNE 4.8 km/h 9.7 km/h 97 % 0 mm
08:54 4.1 °C 3.7 °C 1012.4 hPa NNE 8 km/h 14.5 km/h 97 % 0 mm
08:59 4.1 °C 3.7 °C 1012.1 hPa NNE 6.4 km/h 9.3 km/h 97 % 0 mm
09:04 4.1 °C 3.7 °C 1012.1 hPa NNE 7.9 km/h 16.7 km/h 97 % 0 mm
09:09 4.1 °C 3.7 °C 1012.4 hPa North 12.6 km/h 19.3 km/h 97 % 0 mm
09:14 4.1 °C 3.6 °C 1012.4 hPa NE 6.9 km/h 13 km/h 97 % 0 mm
09:19 4.1 °C 3.6 °C 1012.4 hPa NNE 7.2 km/h 11.1 km/h 97 % 0 mm
09:24 4 °C 3.6 °C 1012.8 hPa NNE 6.9 km/h 11.1 km/h 97 % 0 mm
09:29 4 °C 3.6 °C 1012.8 hPa North 5.8 km/h 8 km/h 97 % 0 mm
09:34 4 °C 3.6 °C 1012.8 hPa NNE 7.1 km/h 9.7 km/h 97 % 0 mm
09:39 4 °C 3.6 °C 1012.8 hPa NNE 7.9 km/h 13 km/h 97 % 0 mm
09:44 4 °C 3.6 °C 1012.8 hPa NNE 9.5 km/h 16.1 km/h 97 % 0 mm
09:49 4 °C 3.6 °C 1012.8 hPa NNE 8.5 km/h 13 km/h 97 % 0 mm
09:54 4 °C 3.6 °C 1012.8 hPa NE 7.1 km/h 13 km/h 97 % 0 mm
09:59 3.9 °C 3.5 °C 1012.8 hPa NNE 7.7 km/h 16.7 km/h 97 % 0 mm
10:04 4 °C 3.6 °C 1012.8 hPa NNE 7.6 km/h 11.1 km/h 97 % 0 mm
10:10 4 °C 3.6 °C 1012.8 hPa ENE 7.9 km/h 11.1 km/h 97 % 0 mm
10:15 4 °C 3.6 °C 1012.8 hPa ENE 8.9 km/h 14.8 km/h 97 % 0 mm
10:20 4 °C 3.6 °C 1012.8 hPa NE 4 km/h 9.3 km/h 97 % 0 mm
10:25 4 °C 3.6 °C 1012.8 hPa NE 6.1 km/h 9.7 km/h 97 % 0 mm
10:32 4 °C 3.6 °C 1012.4 hPa NNE 9.7 km/h 16.7 km/h 97 % 0 mm
10:37 4.1 °C 3.6 °C 1012.4 hPa NNE 6.4 km/h 11.1 km/h 97 % 0 mm
10:42 4.1 °C 3.6 °C 1012.4 hPa NNE 9.2 km/h 16.7 km/h 97 % 0 mm
10:48 4.1 °C 3.6 °C 1012.4 hPa NNE 6.1 km/h 13 km/h 97 % 0 mm
10:53 4.1 °C 3.7 °C 1012.4 hPa NNE 5 km/h 9.3 km/h 97 % 0 mm
10:59 4.2 °C 3.7 °C 1012.1 hPa NNE 10.9 km/h 14.8 km/h 97 % 0 mm
11:04 4.2 °C 3.7 °C 1012.1 hPa NNE 9.7 km/h 16.1 km/h 97 % 0 mm
11:09 4.2 °C 3.7 °C 1011.7 hPa NNE 5.6 km/h 11.1 km/h 97 % 0 mm
11:14 4.2 °C 3.8 °C 1011.7 hPa NNE 8 km/h 13 km/h 97 % 0 mm
11:19 4.3 °C 3.8 °C 1011.7 hPa NE 6 km/h 11.1 km/h 97 % 0 mm
11:24 4.3 °C 3.9 °C 1011.7 hPa North 6.3 km/h 11.1 km/h 97 % 0 mm
11:29 4.3 °C 3.9 °C 1011.7 hPa NNE 8.5 km/h 11.1 km/h 97 % 0 mm
11:34 4.3 °C 3.9 °C 1011.7 hPa NNE 7.6 km/h 9.3 km/h 97 % 0 mm
11:39 4.3 °C 3.8 °C 1011.7 hPa NNE 7.7 km/h 11.1 km/h 97 % 0 mm
11:44 4.3 °C 3.8 °C 1012.1 hPa NNE 7.4 km/h 9.7 km/h 97 % 0 mm
11:49 4.3 °C 3.8 °C 1011.7 hPa NNE 5.1 km/h 8 km/h 97 % 0 mm
11:59 4.3 °C 3.8 °C 1011.4 hPa North 5.1 km/h 9.7 km/h 97 % 0 mm
12:05 4.3 °C 3.8 °C 1011.4 hPa NNE 6.4 km/h 9.3 km/h 97 % 0 mm
12:10 4.3 °C 3.9 °C 1011.4 hPa NNE 5 km/h 8 km/h 97 % 0 mm
12:15 4.3 °C 3.9 °C 1011.4 hPa NE 8.7 km/h 9.7 km/h 97 % 0 mm
12:20 4.3 °C 3.9 °C 1011.4 hPa NE 7.4 km/h 11.1 km/h 97 % 0 mm
12:25 4.3 °C 3.9 °C 1011.4 hPa NE 3.9 km/h 7.4 km/h 97 % 0 mm
12:30 4.4 °C 3.9 °C 1011.4 hPa NNE 7.2 km/h 9.7 km/h 97 % 0 mm
12:35 4.4 °C 4 °C 1011.4 hPa NNE 8.7 km/h 13 km/h 97 % 0 mm
12:40 4.4 °C 4 °C 1011.7 hPa NNE 4.8 km/h 8 km/h 97 % 0 mm
12:45 4.5 °C 4.1 °C 1011.7 hPa NNE 5.6 km/h 9.3 km/h 97 % 0 mm
12:50 4.5 °C 4.1 °C 1011.7 hPa NNE 6.6 km/h 9.3 km/h 97 % 0 mm
12:55 4.6 °C 4.1 °C 1011.7 hPa North 8 km/h 11.1 km/h 97 % 0 mm
13:00 4.6 °C 4.1 °C 1011.7 hPa North 8 km/h 13 km/h 97 % 0 mm
13:05 4.6 °C 4 °C 1012.1 hPa NNE 7.2 km/h 9.3 km/h 96 % 0 mm
13:10 4.6 °C 4 °C 1012.1 hPa NNW 6.8 km/h 9.3 km/h 96 % 0 mm
13:15 4.6 °C 4 °C 1012.1 hPa NNE 3.9 km/h 5.6 km/h 96 % 0 mm
13:20 4.6 °C 4.1 °C 1012.1 hPa North 4.5 km/h 7.4 km/h 96 % 0 mm
13:25 4.6 °C 4.1 °C 1012.1 hPa North 2.7 km/h 5.6 km/h 96 % 0 mm
13:31 4.6 °C 4.1 °C 1012.1 hPa North 3.4 km/h 9.3 km/h 96 % 0 mm
13:36 4.7 °C 4.1 °C 1012.1 hPa NNW 3.1 km/h 9.3 km/h 96 % 0 mm
13:41 4.7 °C 3.9 °C 1012.4 hPa North 6.3 km/h 8 km/h 95 % 0 mm
13:46 4.7 °C 3.9 °C 1012.4 hPa North 9.5 km/h 11.3 km/h 95 % 0 mm
13:51 4.7 °C 3.9 °C 1012.4 hPa NNW 8.4 km/h 11.1 km/h 95 % 0 mm
13:56 4.6 °C 3.9 °C 1012.8 hPa North 8.2 km/h 14.8 km/h 95 % 0 mm
14:01 4.6 °C 3.9 °C 1012.8 hPa North 11.1 km/h 16.7 km/h 95 % 0 mm
14:06 4.6 °C 3.8 °C 1012.8 hPa NNE 7.7 km/h 11.1 km/h 95 % 0 mm
14:11 4.6 °C 3.8 °C 1012.8 hPa NE 7.4 km/h 11.1 km/h 95 % 0 mm
14:16 4.6 °C 3.8 °C 1013.1 hPa North 5.5 km/h 8 km/h 95 % 0 mm
14:21 4.6 °C 3.8 °C 1013.1 hPa NNE 6.9 km/h 9.3 km/h 95 % 0 mm
14:26 4.6 °C 3.8 °C 1013.1 hPa NE 4.5 km/h 9.3 km/h 95 % 0 mm
14:31 4.6 °C 3.8 °C 1013.1 hPa NNE 5 km/h 8 km/h 95 % 0 mm
14:36 4.6 °C 3.8 °C 1013.1 hPa NNE 5 km/h 7.4 km/h 95 % 0 mm
14:41 4.6 °C 3.8 °C 1013.1 hPa North 5.3 km/h 8 km/h 95 % 0 mm
14:43 4.6 °C 3.8 °C 1013.1 hPa NNW 7.7 km/h 9.3 km/h 95 % 0 mm
14:48 4.6 °C 3.8 °C 1013.1 hPa NNE 5 km/h 9.3 km/h 95 % 0 mm
14:53 4.6 °C 3.8 °C 1013.4 hPa North 5.6 km/h 9.3 km/h 95 % 0 mm
14:58 4.6 °C 3.8 °C 1013.4 hPa NNE 7.1 km/h 11.1 km/h 95 % 0 mm
15:03 4.5 °C 3.8 °C 1013.4 hPa NNE 4.2 km/h 9.3 km/h 95 % 0 mm
15:08 4.5 °C 3.8 °C 1013.1 hPa NNE 6.3 km/h 9.7 km/h 95 % 0 mm
15:13 4.4 °C 3.7 °C 1013.1 hPa North 8.4 km/h 13 km/h 95 % 0 mm
15:18 4.4 °C 3.7 °C 1013.1 hPa North 7.7 km/h 11.1 km/h 95 % 0 mm
15:23 4.4 °C 3.7 °C 1013.1 hPa NNE 6.9 km/h 8 km/h 95 % 0 mm
15:28 4.4 °C 3.7 °C 1013.1 hPa North 5.5 km/h 11.1 km/h 95 % 0 mm
15:33 4.4 °C 3.7 °C 1013.1 hPa NNE 6.9 km/h 9.3 km/h 95 % 0 mm
15:38 4.4 °C 3.7 °C 1013.1 hPa NNE 6.3 km/h 9.3 km/h 95 % 0 mm
15:44 4.4 °C 3.7 °C 1013.4 hPa NNE 6.6 km/h 9.3 km/h 95 % 0 mm
15:49 4.4 °C 3.7 °C 1013.1 hPa NE 1.4 km/h 3.7 km/h 95 % 0 mm
15:54 4.4 °C 3.7 °C 1013.1 hPa NNE 2.4 km/h 3.7 km/h 95 % 0 mm
15:59 4.4 °C 3.7 °C 1013.1 hPa NNE 1.6 km/h 7.4 km/h 95 % 0 mm
16:04 4.5 °C 3.8 °C 1013.1 hPa NNE 1.6 km/h 8 km/h 95 % 0 mm
16:09 4.5 °C 3.8 °C 1013.4 hPa NE 3.2 km/h 4.8 km/h 95 % 0 mm
16:14 4.5 °C 3.8 °C 1013.4 hPa NNE 3.1 km/h 5.6 km/h 95 % 0 mm
16:19 4.5 °C 3.8 °C 1013.4 hPa NNE 1.6 km/h 6.4 km/h 95 % 0 mm
16:24 4.6 °C 3.8 °C 1013.8 hPa NNE 1.6 km/h 4.8 km/h 95 % 0 mm
16:29 4.6 °C 3.8 °C 1013.8 hPa NNE 3.2 km/h 8 km/h 95 % 0 mm
16:34 4.5 °C 3.8 °C 1013.8 hPa NNE 1.6 km/h 8 km/h 95 % 0 mm
16:39 4.5 °C 3.8 °C 1014.1 hPa NNE 4.8 km/h 6.4 km/h 95 % 0 mm
16:44 4.5 °C 3.8 °C 1014.1 hPa NNE 1.6 km/h 6.4 km/h 95 % 0 mm
16:49 4.5 °C 3.6 °C 1014.4 hPa Calm   4.8 km/h 94 % 0 mm
16:54 4.5 °C 3.6 °C 1014.4 hPa Calm   3.2 km/h 94 % 0 mm
16:59 4.5 °C 3.6 °C 1014.4 hPa North 0.6 km/h 1.9 km/h 94 % 0 mm
17:04 4.5 °C 3.6 °C 1014.4 hPa Calm     94 % 0 mm
17:09 4.5 °C 3.6 °C 1014.8 hPa Calm     94 % 0 mm
17:14 4.5 °C 3.6 °C 1014.8 hPa Calm     94 % 0 mm
17:19 4.5 °C 3.6 °C 1014.4 hPa Calm     94 % 0 mm
17:24 4.4 °C 3.6 °C 1014.8 hPa Calm     94 % 0 mm
17:29 4.4 °C 3.6 °C 1014.8 hPa WNW 1.6 km/h 3.7 km/h 94 % 0 mm
17:34 4.4 °C 3.6 °C 1015.1 hPa Calm     94 % 0 mm
17:39 4.4 °C 3.6 °C 1015.1 hPa NW 2.1 km/h 5.6 km/h 94 % 0 mm
17:44 4.4 °C 3.6 °C 1015.1 hPa NNW 1 km/h 5.6 km/h 94 % 0 mm
17:49 4.4 °C 3.6 °C 1015.1 hPa North 1.6 km/h 5.6 km/h 94 % 0 mm
17:55 4.4 °C 3.6 °C 1015.5 hPa North 0.5 km/h 1.9 km/h 94 % 0 mm
18:00 4.4 °C 3.6 °C 1015.5 hPa Calm     94 % 0 mm
18:05 4.4 °C 3.6 °C 1015.5 hPa Calm     94 % 0 mm
18:10 4.4 °C 3.6 °C 1015.5 hPa North 0.3 km/h 3.2 km/h 94 % 0 mm
18:15 4.4 °C 3.6 °C 1015.8 hPa NW 0.3 km/h 3.7 km/h 94 % 0 mm
18:20 4.4 °C 3.6 °C 1015.8 hPa NW 0.6 km/h 3.7 km/h 94 % 0 mm
18:25 4.4 °C 3.6 °C 1015.8 hPa North 0.3 km/h 3.7 km/h 94 % 0 mm
18:30 4.4 °C 3.6 °C 1015.8 hPa North 0.5 km/h 3.7 km/h 94 % 0 mm
18:35 4.4 °C 3.6 °C 1015.8 hPa North 1 km/h 3.7 km/h 94 % 0 mm
18:40 4.4 °C 3.6 °C 1015.8 hPa Calm     94 % 0 mm
18:45 4.4 °C 3.6 °C 1015.8 hPa NNW 2.4 km/h 5.6 km/h 94 % 0 mm
18:47 4.4 °C 3.6 °C 1015.8 hPa Calm   3.7 km/h 94 % 0 mm
18:52 4.4 °C 3.6 °C 1015.8 hPa Calm     94 % 0 mm
18:57 4.4 °C 3.6 °C 1015.8 hPa Calm     94 % 0 mm
19:02 4.4 °C 3.6 °C 1015.8 hPa Calm     94 % 0 mm
19:07 4.4 °C 3.6 °C 1015.8 hPa Calm   1.6 km/h 94 % 0 mm
19:12 4.4 °C 3.6 °C 1016.1 hPa NNW 1 km/h   94 % 0 mm
19:17 4.4 °C 3.6 °C 1016.1 hPa Calm   1.9 km/h 94 % 0 mm
19:22 4.4 °C 3.6 °C 1016.1 hPa Calm   1.9 km/h 94 % 0 mm
19:27 4.4 °C 3.6 °C 1016.5 hPa Calm   1.9 km/h 94 % 0 mm
19:32 4.4 °C 3.6 °C 1016.1 hPa Calm     94 % 0 mm
19:37 4.4 °C 3.5 °C 1016.1 hPa Calm     94 % 0 mm
19:42 4.4 °C 3.5 °C 1016.1 hPa Calm   1.9 km/h 94 % 0 mm
19:47 4.4 °C 3.5 °C 1016.1 hPa Calm     94 % 0 mm
19:52 4.3 °C 3.4 °C 1016.1 hPa Calm     94 % 0 mm
19:57 4.3 °C 3.4 °C 1016.1 hPa Calm     94 % 0 mm
20:02 4.3 °C 3.4 °C 1016.1 hPa Calm     94 % 0 mm
20:07 4.3 °C 3.4 °C 1015.8 hPa Calm     94 % 0 mm
20:13 4.3 °C 3.4 °C 1015.8 hPa Calm     94 % 0 mm
20:18 4.3 °C 3.4 °C 1015.8 hPa Calm     94 % 0 mm
20:23 4.3 °C 3.4 °C 1015.8 hPa Calm     94 % 0 mm
20:28 4.3 °C 3.4 °C 1015.8 hPa Calm     94 % 0 mm
20:33 4.3 °C 3.4 °C 1015.5 hPa Calm     94 % 0 mm
20:38 4.3 °C 3.4 °C 1015.5 hPa Calm     94 % 0 mm
20:43 4.3 °C 3.6 °C 1015.5 hPa Calm     95 % 0 mm
20:48 4.3 °C 3.6 °C 1015.1 hPa Calm     95 % 0 mm
20:53 4.3 °C 3.6 °C 1015.1 hPa Calm     95 % 0 mm
20:58 4.3 °C 3.6 °C 1015.1 hPa Calm     95 % 0 mm
21:03 4.2 °C 3.5 °C 1015.5 hPa Calm     95 % 0 mm
21:08 4.2 °C 3.5 °C 1015.5 hPa Calm     95 % 0 mm
21:13 4.2 °C 3.4 °C 1015.8 hPa NNW 0.6 km/h 3.7 km/h 95 % 0 mm
21:18 4.2 °C 3.4 °C 1015.8 hPa NNW 0.6 km/h 3.7 km/h 95 % 0 mm
21:23 4.2 °C 3.4 °C 1015.8 hPa NNW 1.3 km/h 5.6 km/h 95 % 0 mm
21:28 4.1 °C 3.4 °C 1015.5 hPa Calm   3.2 km/h 95 % 0 mm
21:33 4.1 °C 3.4 °C 1015.1 hPa NNW 1.8 km/h 3.7 km/h 95 % 0 mm
21:39 4.1 °C 3.3 °C 1015.1 hPa NNW 1.3 km/h 3.7 km/h 95 % 0 mm
21:44 4.1 °C 3.3 °C 1015.1 hPa NNE 4.7 km/h 5.6 km/h 95 % 0 mm
21:49 4.1 °C 3.3 °C 1015.1 hPa NNE 3.2 km/h 5.6 km/h 95 % 0 mm
21:54 4.1 °C 3.3 °C 1015.1 hPa NNE 1.8 km/h 5.6 km/h 95 % 0 mm
21:59 4 °C 3.3 °C 1015.1 hPa NE 1.6 km/h 5.6 km/h 95 % 0 mm
22:04 4 °C 3.3 °C 1015.5 hPa NNE 1.6 km/h 8 km/h 95 % 0 mm
22:09 4 °C 3.3 °C 1015.5 hPa NNE 1.6 km/h 4.8 km/h 95 % 0 mm
22:14 4 °C 3.3 °C 1015.5 hPa North 3.2 km/h 4.8 km/h 95 % 0 mm
22:19 3.9 °C 3.2 °C 1015.8 hPa North 1.6 km/h 4.8 km/h 95 % 0 mm
22:24 4 °C 3.3 °C 1015.8 hPa NNW 0.5 km/h 3.7 km/h 95 % 0 mm
22:29 4 °C 3.3 °C 1015.8 hPa NNW 1.6 km/h 3.2 km/h 95 % 0 mm
22:34 4 °C 3.3 °C 1015.8 hPa Calm     95 % 0 mm
22:39 4 °C 3.2 °C 1015.8 hPa Calm   3.2 km/h 95 % 0 mm
22:44 3.9 °C 3.2 °C 1015.8 hPa Calm   4.8 km/h 95 % 0 mm
22:49 4 °C 3.3 °C 1015.8 hPa North 0.3 km/h 1.9 km/h 95 % 0 mm
22:54 3.9 °C 3.2 °C 1015.8 hPa Calm   3.2 km/h 95 % 0 mm
22:59 4 °C 3.3 °C 1015.8 hPa Calm   1.9 km/h 95 % 0 mm
23:04 3.9 °C 3.2 °C 1015.8 hPa Calm   3.2 km/h 95 % 0 mm
23:09 3.9 °C 3.2 °C 1015.8 hPa Calm   4.8 km/h 95 % 0 mm
23:14 3.9 °C 3.2 °C 1015.5 hPa North 1.6 km/h 8 km/h 95 % 0 mm
23:19 3.9 °C 3.2 °C 1015.5 hPa North 1.6 km/h 6.4 km/h 95 % 0 mm
23:24 3.9 °C 3.2 °C 1015.5 hPa Calm     95 % 0 mm
23:29 3.8 °C 3.1 °C 1015.1 hPa North 1.6 km/h 4.8 km/h 95 % 0 mm
23:34 3.8 °C 2.9 °C 1015.1 hPa Calm   1.9 km/h 94 % 0 mm
23:39 3.8 °C 2.9 °C 1015.1 hPa Calm   3.2 km/h 94 % 0 mm
23:44 3.8 °C 2.9 °C 1015.1 hPa North 1.6 km/h 3.7 km/h 94 % 0 mm
23:49 3.8 °C 2.9 °C 1015.1 hPa North 1.6 km/h 4.8 km/h 94 % 0 mm
23:54 3.8 °C 2.9 °C 1014.8 hPa Calm   4.8 km/h 94 % 0 mm
23:59 3.8 °C 2.9 °C 1014.8 hPa Calm     94 % 0 mm
Crab Meadow Weather
Compliments of Weather Underground - 3 mb

Script developed by  Jim McMurry - jmcmurry@mwt.net Adapted for the template by  Wim van der Kuil - Leuven-Template.eu

Hurricanes: In one day a hurricane can release enough energy to supply all of the nation's electrical needs for about six months.